TimeEST,TemperatureF,Dew PointF,Humidity,Sea Level PressureIn,VisibilityMPH,Wind Direction,Wind SpeedMPH,Gust SpeedMPH,PrecipitationIn,Events,Conditions,WindDirDegrees,DateUTC
12:54 AM,36.0,21.0,55,30.25,10.0,South,10.4,-,N/A,,Clear,180,2013-02-19 05:54:00
1:54 AM,36.0,21.9,57,30.21,10.0,South,9.2,-,N/A,,Clear,170,2013-02-19 06:54:00
2:54 AM,37.0,23.0,57,30.19,10.0,South,8.1,-,N/A,,Clear,180,2013-02-19 07:54:00
3:54 AM,36.0,23.0,59,30.19,10.0,South,6.9,-,N/A,,Clear,190,2013-02-19 08:54:00
4:54 AM,37.0,24.1,59,30.16,10.0,South,9.2,-,N/A,,Clear,190,2013-02-19 09:54:00
5:54 AM,37.0,25.0,62,30.14,10.0,South,8.1,-,N/A,,Clear,180,2013-02-19 10:54:00
6:54 AM,37.9,26.1,62,30.12,10.0,South,9.2,-,N/A,,Clear,180,2013-02-19 11:54:00
7:54 AM,41.0,28.0,60,30.11,10.0,South,9.2,-,N/A,,Partly Cloudy,180,2013-02-19 12:54:00
8:54 AM,46.0,30.9,56,30.08,10.0,South,12.7,18.4,N/A,,Clear,190,2013-02-19 13:54:00
9:54 AM,53.1,37.0,55,30.05,10.0,SSW,15.0,24.2,N/A,,Mostly Cloudy,200,2013-02-19 14:54:00
10:54 AM,55.0,37.0,51,30.02,10.0,SSW,18.4,26.5,N/A,,Overcast,200,2013-02-19 15:54:00
11:54 AM,54.0,39.9,59,29.99,10.0,South,16.1,25.3,0.00,Rain,Light Rain,190,2013-02-19 16:54:00
1:54 PM,55.9,42.1,60,29.88,10.0,SSW,11.5,-,0.00,,Overcast,200,2013-02-19 18:54:00
2:36 PM,51.8,46.4,82,29.87,2.0,SSW,8.1,-,0.04,Rain,Light Rain,200,2013-02-19 19:36:00
2:54 PM,51.1,46.9,86,29.86,2.0,SSW,8.1,-,0.06,Rain,Light Rain,200,2013-02-19 19:54:00
3:54 PM,51.1,46.9,86,29.81,2.0,South,10.4,-,0.04,Rain,Light Rain,170,2013-02-19 20:54:00
4:01 PM,51.8,46.4,82,29.79,10.0,South,11.5,-,N/A,,Overcast,170,2013-02-19 21:01:00
4:54 PM,51.1,46.9,86,29.78,6.0,South,11.5,-,0.01,Rain,Light Rain,190,2013-02-19 21:54:00
4:59 PM,51.8,46.4,82,29.76,2.5,South,10.4,-,0.01,Rain,Light Rain,190,2013-02-19 21:59:00
5:03 PM,51.8,46.4,82,29.76,1.8,South,10.4,-,0.02,Rain,Light Rain,190,2013-02-19 22:03:00
5:09 PM,51.8,48.2,88,29.76,2.0,South,11.5,-,0.03,Rain,Light Rain,180,2013-02-19 22:09:00
5:37 PM,51.8,48.2,88,29.76,2.0,SSW,12.7,-,0.06,Rain,Light Rain,210,2013-02-19 22:37:00
5:45 PM,51.8,48.2,88,29.76,2.0,SSW,12.7,20.7,0.06,Rain,Light Rain,210,2013-02-19 22:45:00
5:54 PM,52.0,48.0,86,29.76,2.5,SSW,12.7,21.9,0.07,Rain,Light Rain,210,2013-02-19 22:54:00
6:02 PM,51.8,48.2,88,29.76,6.0,SW,12.7,23.0,0.00,Rain,Light Rain,220,2013-02-19 23:02:00
7:31 PM,51.8,46.4,82,29.77,10.0,WSW,13.8,-,0.00,,Overcast,250,2013-02-20 00:31:00
7:54 PM,50.0,46.0,86,29.78,10.0,WSW,13.8,21.9,0.00,,Overcast,240,2013-02-20 00:54:00
8:45 PM,48.2,44.6,87,29.79,10.0,West,9.2,-,N/A,,Mostly Cloudy,260,2013-02-20 01:45:00
8:54 PM,48.0,44.1,86,29.80,10.0,West,9.2,17.3,N/A,,Mostly Cloudy,270,2013-02-20 01:54:00
9:07 PM,48.2,42.8,82,29.79,10.0,West,9.2,-,N/A,,Scattered Clouds,260,2013-02-20 02:07:00
9:54 PM,46.0,41.0,83,29.81,10.0,West,6.9,-,N/A,,Partly Cloudy,270,2013-02-20 02:54:00
10:54 PM,46.0,39.9,79,29.83,10.0,West,8.1,-,N/A,,Clear,280,2013-02-20 03:54:00
11:54 PM,45.0,33.1,63,29.84,10.0,WNW,8.1,-,N/A,,Clear,290,2013-02-20 04:54:00